Location: Unspecified
(0.0000°N, 0.0000°E)
Time: 15:35:58
(UTC+00:00)

Kosmos-90 - Visible Passes

Search period start: 13 May 2026 00:00
Search period end: 23 May 2026 00:00
Orbit: 1406 x 1653 km, 56.1° (Epoch: 12 May)

Date Brightness Start Highest point End Pass type
(mag) Time Alt. Az. Time Alt. Az. Time Alt. Az.
13 May ? 19:22:37 10° N 19:30:54 33° ENE 19:33:12 30° E visible
13 May ? 21:23:36 10° NW 21:29:54 38° W 21:29:54 38° W visible
14 May ? 18:42:09 10° NNE 18:48:54 21° ENE 18:53:43 15° E visible
14 May ? 20:41:11 10° NW 20:50:26 67° WSW 20:50:26 67° WSW visible
15 May ? 19:59:09 10° NNW 20:08:45 85° ENE 20:11:01 60° SE visible
15 May ? 22:05:34 10° W 22:07:44 14° WSW 22:07:44 14° WSW visible
16 May ? 19:17:31 10° NNW 19:26:51 59° ENE 19:31:39 32° SE visible
16 May ? 21:21:13 10° WNW 21:28:22 25° WSW 21:28:22 25° WSW visible
17 May ? 18:36:16 10° N 18:44:55 39° ENE 18:52:18 15° ESE visible
17 May ? 20:37:59 10° WNW 20:46:41 39° WSW 20:49:02 34° SSW visible
18 May ? 19:55:22 10° NW 20:04:42 57° WSW 20:09:43 31° S visible
19 May ? 19:13:12 10° NNW 19:22:45 83° WSW 19:30:26 19° SSE visible
19 May ? 21:21:17 10° WSW 21:25:02 13° SW 21:27:10 12° SW visible
20 May ? 18:31:25 10° NNW 18:40:50 69° ENE 18:50:38 10° SE visible
20 May ? 20:36:03 10° WNW 20:42:48 21° WSW 20:47:53 14° SSW visible
21 May ? 05:13:29 10° SSE 05:19:47 21° ESE 05:25:53 10° ENE visible
21 May ? 19:52:27 10° WNW 20:00:43 33° WSW 20:08:35 12° S visible
22 May ? 04:34:29 10° SSE 04:37:39 12° SE 04:40:44 10° ESE visible
22 May ? 19:09:38 10° NW 19:18:42 49° WSW 19:28:08 10° SSE visible
